Weather Roundup
Issued by NWS Chicago, IL

Home | Current Version | Previous Version | Graphics & Text | Print | Product List | Glossary On
Versions: 1 2 3 4 5 6 7 8 9 10 11 12 13 14 15 16 17 18 19 20 21 22 23 24 25 26 27 28 29 30 31 32 33 34 35 36 37 38 39 40 41 42 43 44 45 46 47 48 49 50
000
NZUS59 KLOT 060606
HRRLOT

CHICAGO AREA WEATHER ROUNDUP
NATIONAL WEATHER SERVICE CHICAGO/ROMEOVILLE IL
1200 AM CST FRI MAR 06 2015

NOTE: "FAIR" INDICATES FEW OR NO CLOUDS BELOW 12,000 FEET WITH NO
SIGNIFICANT WEATHER AND/OR OBSTRUCTIONS TO VISIBILITY.

* THESE STATIONS ARE NOT UNDER NWS QUALITY CONTROL. THEY ALSO MAY NOT
  REPORT WEATHER SUCH AS PRECIPITATION OR FOG.

ILZ005-006-012>014-019>023-060700-
NORTHEAST ILLINOIS

CITY           SKY/WX    TMP DP  RH WIND       PRES   REMARKS
OHARE          MOCLDY     6  -2  69 SW5       30.52F WCI  -3
6HR MIN TEMP:   6; 6HR MAX TEMP:  13;

MIDWAY         PTCLDY     8  -2  63 SW6       30.54F WCI  -2
6HR MIN TEMP:   8; 6HR MAX TEMP:  16;

AURORA         PTCLDY     2  -6  69 SW6       30.53F WCI  -9
6HR MIN TEMP:   1; 6HR MAX TEMP:  10;

LANSING*       PTCLDY     5  -2  74 W6        30.54F WCI  -6
JOLIET*        PTCLDY    -1  -5  82 CALM      30.55F
WAUKEGAN       MOCLDY     3  -4  72 SW5       30.49F WCI  -6
6HR MIN TEMP:  -4; 6HR MAX TEMP:  11;

DUPAGE AIRPORT PTCLDY     2  -6  69 SW7       30.51F WCI -11
6HR MIN TEMP:   1; 6HR MAX TEMP:  10;

WHEELING       MOCLDY     7  -2  66 SW6       30.53F WCI  -3
6HR MIN TEMP:   7; 6HR MAX TEMP:  14;

KANKAKEE*      PTCLDY     0  -4  80 CALM      30.57S
MORRIS*        PTCLDY     0  -4  85 CALM      30.54F
LEWIS AIRPORT* PTCLDY     3  -4  73 W6        30.54F WCI  -8
NORTHERLY IS     N/A     11   2  67 W6          N/A  WCI   2
$$

WIZ051-052-058>065-066-070>072-060700-
SOUTHEAST WISCONSIN

CITY           SKY/WX    TMP DP  RH WIND       PRES   REMARKS
MILWAUKEE      PTCLDY     5  -7  57 SW8       30.48S WCI  -8
6HR MIN TEMP:   5; 6HR MAX TEMP:  14;

KENOSHA*       MOCLDY     3  -7  63 SW6       30.48F WCI  -8
RACINE*        PTCLDY     3  -8  60 SW6       30.50F WCI  -8
BURLINGTON     MOCLDY   -10 -15  80 CALM      30.48F
WAUKESHA       PTCLDY     3  -6  66 SW8       30.46F WCI -10
WEST BEND      MOCLDY     5  -6  61 SW5       30.43F WCI  -4
$$

INZ001>003-010>013-019-020-060700-
NORTHWEST INDIANA

CITY           SKY/WX    TMP DP  RH WIND       PRES   REMARKS
GARY*          PTCLDY    10  -2  56 SW3       30.55F
6HR MIN TEMP:  10; 6HR MAX TEMP:  17;

MICHIGAN CITY* NOT AVBL
RENSSELAER*    NOT AVBL
VALPARAISO     PTCLDY     5  -3  69 W7        30.53F WCI  -7
$$

LMZ740>746-060700-
SOUTHERN LAKE MICHIGAN

STATION/POSITION TIME  SKY/WX   TEMP WIND        PRES    VSBY
                                AIR  DIR/SP/G
                 (UTC)          (F)  (DEG/KT/KT) (MB)    (MI)
HARRISON CRIB    0600            11  250/ 12/ 15   N/A
BURNHAM HARBOR   0600            11  260/  9/ 11   N/A
CALUMET HARBOR   0600            10  220/  5/  8 1032.7F
BURNS HARBOR     NOT AVBL
MICHIGAN CITY    0600             8  190/  9/  9   N/A
$$

ABBREVIATIONS USED IN REMARKS
   TC - TEMPERATURE IN CELSIUS
  WCI - WIND CHILL INDEX
   HX - HEAT INDEX
  VSB - VISIBILITY
$$


USA.gov is the U.S. government's official web portal to all federal, state and local government web resources and services.